[[{"header":{"parameterUnit":"m.s-1","parameterCategory":1,"la1":30.2991,"la2":30.254,"lo1":-89.0895,"lo2":-89.0444,"dy":0.0017,"dx":0.0017,"nx":28,"ny":28,"refTime":"2024-07-28T21:00:00:Z","depth":0,"parameterNumber":2,"parameterNumberName":"U-component_of_WINDS"},"data":[0,0,0,0,0,0,0,0,0,0,0,0,0,0,0,0,0,0,0,0,0,0,0,0,0,0,0,0,0,0,0,0,0,0,0,0,0,0,0,0,0,0,0,0,0,0,0,0,0,0,0,0,0,0,0,0,0,0,0.9807,0.9808,0,0.9861,0.9861,0.9862,0.9885,0.9885,0.9885,0.9885,0.9942,0.9944,0.9946,0,0,0,0,0,0,0,0,0,0,0,0,0,0.9727,0.9728,0.9807,0.9808,0.9808,0.9861,0.9861,0.9862,0.9885,0.9885,0.9885,0.9885,0.9942,0.9944,0.9946,0,0,0,0,0,0,0,0,0,0,0,0,0,0.9769,0.9729,0.9807,0.9826,0.9828,0.986,0.9861,0.9862,0.9886,0.9885,0.9885,0.9885,0.9941,0.9944,0.9946,0.9963,0,0,0.9953,0.9954,0,0,0,0,0,0,0,0,0.9767,0.9772,0.9823,0.9825,0.9828,0.9866,0.9854,0.9896,0.9886,0.9864,0.9885,0.9885,0.9917,0.9922,0.9932,0.9966,0.9968,0.9953,0.9955,0.9956,0.9957,0,0,0,0,0,0,0,0.9764,0.977,0.9828,0.9823,0.9826,0.9833,0.9839,0.9862,0.9891,0.9866,0.9868,0.9874,0.9919,0.993,0.9934,0.9969,0.9953,0.9956,0.9957,0.9958,1.0021,1.0021,0,0,0,0,0,0,0.9757,0.9767,0.9827,0.983,0.9796,0.9835,0.9841,0.9854,0.9891,0.9896,0.9874,0.9874,0.9926,0.9931,0.9936,0.9959,0.9956,0.9958,0.996,1.002,1.0021,1.0021,0,0,0,0,0,0,0.9756,0.9762,0.9824,0.9799,0.9808,0.9836,0.985,0.9855,0.9866,0.9896,0.9902,0.988,0.9926,0.9932,0.9956,0.9961,0.9959,0.9961,1.002,1.002,1.0021,1.0004,0,0,0,0,0,0,0.9753,0.9762,0.9768,0.9799,0.9809,0.9843,0.9851,0.9856,0.987,0.9872,0.9903,0.9909,0.9926,0.9952,0.9959,0.9964,0.9963,1.002,1.002,1.0021,1.0005,1.0004,1.0004,0,0,0,0,0,0.975,0.9762,0.9768,0.9775,0.9817,0.9843,0.9849,0.9868,0.987,0.9877,0.9897,0.9908,0.9959,0.9955,0.9962,0.9968,1.002,1.002,1.0021,1.0005,1.0004,1.0004,0,0,0,0,0,0,0.9731,0.9766,0.9774,0.9795,0.9816,0.9847,0.9857,0.9867,0.9888,0.9889,0.9913,0.992,0.9942,0.9958,0.9952,0.9987,0.999,0.9992,0.9976,0.9976,0.9975,0.9971,0.9965,0,0,0,0,0,0.9729,0.9747,0.9777,0.9793,0.9803,0.9828,0.984,0.9853,0.9876,0.9885,0.9907,0.9929,0.995,0.9964,0.9985,1.0007,1.0015,1.0015,1.0014,1.0014,1.0015,1.0028,1.0029,1.0023,1.0023,1.0023,0,0,0.9726,0.9747,0.9757,0.979,0.9807,0.9826,0.9835,0.9854,0.9869,0.9888,0.9912,0.9928,0.9955,0.9978,0.9989,0.9992,1.0019,1.0015,1.0014,1.0016,1.0029,1.003,1.003,1.0023,1.0023,1.0023,0,0,0.9729,0.9746,0.9762,0.9779,0.9806,0.9822,0.9826,0.9856,0.9867,0.9891,0.9907,0.9924,0.9961,0.9979,0.9993,1.0003,1.0014,1.001,1.0007,1.002,1.002,1.0021,1.0025,1.0026,1.0011,1.0011,1.0011,0,0.9721,0.9749,0.9769,0.9787,0.9801,0.9819,0.9836,0.9852,0.9884,0.9894,0.9896,0.9942,0.9962,0.9989,0.9992,1.0002,1.0008,1.0006,1.0018,1.0019,1.002,1.0024,1.0026,1.001,1.001,1.0011,1.0011,0,0.9739,0.9758,0.9767,0.9797,0.9813,0.983,0.9853,0.9866,0.9878,0.9895,0.9919,0.9943,0.997,0.9977,0.9989,1.0007,1.0007,1.0014,1.0018,1.002,1.0024,1.0026,1.0009,1.001,1.001,1.001,0,0,0.9731,0.9772,0.9775,0.9789,0.982,0.9835,0.9854,0.9879,0.989,0.9912,0.9928,0.9958,0.9965,0.9981,0.9995,1.0006,1.0013,1.0011,1.0012,1.0011,1.0034,1.0029,1.003,1.002,1.0021,1.0021,1.0032,0,0.9738,0.9771,0.979,0.9815,0.9833,0.9851,0.9867,0.9888,0.9904,0.9923,0.9941,0.9962,0.9968,0.9978,0.999,1.0009,1.0018,1.0009,1.0036,1.0037,1.0029,1.0033,1.0027,1.0037,1.0034,1.0034,1.0034,0,0.9751,0.9772,0.9799,0.9828,0.9836,0.985,0.9875,0.9892,0.9917,0.9928,0.9946,0.996,0.9981,0.9983,1.0012,1.0006,1.0018,1.003,1.0031,1.0034,1.0036,1.0036,1.004,1.0041,1.0037,1.0037,1.0036,0,0.9743,0.9778,0.9799,0.981,0.9844,0.9854,0.9869,0.9893,0.9907,0.9929,0.9939,0.9963,0.9976,0.9995,1.0016,1.0016,1.0044,1.0047,1.0054,1.0053,1.0059,1.0058,1.0065,1.0067,1.0067,1.0067,1.0067,0,0.975,0.9766,0.9796,0.9808,0.9827,0.9849,0.9867,0.9883,0.9904,0.9921,0.9938,0.9954,0.998,0.9999,1.0016,1.0038,1.0044,1.0054,1.0058,1.0052,1.0051,1.0061,1.0061,1.0067,1.0067,1.0067,1.0067,0,0.9744,0.9764,0.9788,0.9818,0.9826,0.9839,0.9865,0.9879,0.9896,0.9917,0.9923,0.995,0.9973,0.9996,1.0027,1.0038,1.006,1.0066,1.0052,1.0054,1.0059,1.0058,1.0072,1.0075,1.0075,1.0075,1.0075,0,0.9746,0.9759,0.979,0.9802,0.9817,0.9836,0.9851,0.9872,0.9887,0.9916,0.9926,0.995,0.9971,1.0008,1.003,1.0055,1.0061,1.0064,1.0065,1.0059,1.0061,1.006,1.0062,1.0064,1.0064,1.0064,1.0063,0,0.9749,0.9759,0.9778,0.9802,0.9818,0.9838,0.9858,0.9867,0.9893,0.9909,0.9933,0.9949,0.998,1.0005,1.0032,1.0048,1.006,1.0063,1.0066,1.006,1.0052,1.0056,1.005,1.0063,1.0063,1.0063,1.0063,1.0063,0.9748,0.976,0.9784,0.9805,0.9823,0.9841,0.9855,0.9874,0.9894,0.9921,0.9933,0.9957,0.9982,1.0019,1.0035,1.0055,1.0058,1.0062,1.0063,1.0064,1.0062,1.0048,1.006,1.006,1.006,1.006,1.006,0,0.9752,0.9768,0.9787,0.9815,0.9832,0.9841,0.9864,0.9878,0.9899,0.9921,0.994,0.9968,0.9992,1.0016,1.0041,1.0052,1.0059,1.0058,1.0058,1.0062,1.0058,1.0053,1.0053,1.0053,1.0053,1.0053,1.0053,1.0053,0.9756,0.9777,0.9789,0.9819,0.9836,0.9859,0.9871,0.9889,0.9906,0.9936,0.9955,0.9971,0.9994,1.0021,1.0043,1.005,1.0059,1.0057,1.0065,1.0061,1.0062,1.0062,1.0058,1.0058,1.0058,1.0067,1.0067,1.0067]},{"header":{"parameterUnit":"m.s-1","parameterCategory":1,"la1":30.2991,"la2":30.254,"lo1":-89.0895,"lo2":-89.0444,"dy":0.0017,"dx":0.0017,"nx":28,"ny":28,"refTime":"2024-07-28T21:00:00:Z","depth":0,"parameterNumber":3,"parameterNumberName":"V-component_of_WINDS"},"data":[0,0,0,0,0,0,0,0,0,0,0,0,0,0,0,0,0,0,0,0,0,0,0,0,0,0,0,0,0,0,0,0,0,0,0,0,0,0,0,0,0,0,0,0,0,0,0,0,0,0,0,0,0,0,0,0,0,0,1.37,1.37,0,1.3662,1.3662,1.3661,1.3641,1.3641,1.3641,1.3641,1.3601,1.36,1.3598,0,0,0,0,0,0,0,0,0,0,0,0,0,1.3754,1.3753,1.37,1.37,1.3699,1.3662,1.3662,1.3661,1.3641,1.3641,1.3641,1.3641,1.3601,1.36,1.3598,0,0,0,0,0,0,0,0,0,0,0,0,0,1.3725,1.3753,1.37,1.3685,1.3683,1.3662,1.3662,1.3661,1.3641,1.3641,1.3641,1.3641,1.3601,1.36,1.3598,1.3589,0,0,1.3593,1.3593,0,0,0,0,0,0,0,0,1.3727,1.3723,1.3688,1.3686,1.3684,1.3656,1.3666,1.3637,1.3641,1.3657,1.3641,1.3641,1.3619,1.3616,1.3609,1.3587,1.3585,1.3593,1.3592,1.3592,1.3591,0,0,0,0,0,0,0,1.3729,1.3724,1.3685,1.3687,1.3685,1.3679,1.3675,1.366,1.3639,1.3656,1.3654,1.365,1.3618,1.361,1.3608,1.3585,1.3593,1.3592,1.3591,1.359,1.3553,1.3553,0,0,0,0,0,0,1.3733,1.3726,1.3686,1.3684,1.3706,1.3679,1.3674,1.3665,1.3639,1.3635,1.365,1.3649,1.3613,1.361,1.3606,1.3593,1.3592,1.359,1.3589,1.3553,1.3553,1.3553,0,0,0,0,0,0,1.3735,1.373,1.3688,1.3705,1.3699,1.3678,1.3668,1.3665,1.3657,1.3635,1.3631,1.3647,1.3613,1.3609,1.3593,1.3592,1.3589,1.3588,1.3553,1.3553,1.3553,1.3568,0,0,0,0,0,0,1.3736,1.3731,1.3727,1.3705,1.3698,1.3676,1.3668,1.3664,1.3654,1.3653,1.363,1.3626,1.3613,1.3596,1.3592,1.3589,1.3587,1.3553,1.3553,1.3553,1.3567,1.3568,1.3569,0,0,0,0,0,1.3738,1.3733,1.3727,1.3723,1.3694,1.3676,1.3672,1.3657,1.3654,1.3651,1.3636,1.3627,1.3593,1.3595,1.359,1.3587,1.3553,1.3553,1.3553,1.3567,1.3568,1.3569,0,0,0,0,0,0,1.3755,1.373,1.3723,1.3711,1.3696,1.3673,1.3668,1.3659,1.3644,1.3644,1.3625,1.362,1.3606,1.3595,1.3598,1.3576,1.3572,1.3571,1.3584,1.3585,1.3586,1.3589,1.3585,0,0,0,0,0,1.3758,1.3746,1.3724,1.3715,1.3708,1.3689,1.3681,1.3671,1.3655,1.3648,1.3632,1.3617,1.3602,1.3593,1.3578,1.3566,1.356,1.3561,1.3562,1.3563,1.3562,1.3554,1.3554,1.3552,1.3552,1.3552,0,0,1.3763,1.3747,1.3741,1.3718,1.3706,1.3694,1.3684,1.3672,1.3663,1.3646,1.3631,1.3619,1.36,1.3586,1.3579,1.3576,1.3561,1.3563,1.3564,1.3562,1.3554,1.3554,1.3554,1.3552,1.3552,1.3552,0,0,1.3765,1.3752,1.3743,1.3731,1.3712,1.3699,1.3697,1.3675,1.3667,1.3651,1.3639,1.3627,1.3603,1.3589,1.3579,1.3576,1.3567,1.3572,1.3576,1.3569,1.3569,1.3569,1.3567,1.3567,1.3571,1.3571,1.3571,0,1.3773,1.3755,1.3739,1.3728,1.3718,1.3703,1.3693,1.3681,1.3659,1.3652,1.3649,1.3618,1.3604,1.3586,1.3586,1.3578,1.3575,1.3575,1.357,1.357,1.357,1.3568,1.3568,1.3572,1.3572,1.3572,1.3572,0,1.3766,1.3753,1.3748,1.3727,1.3716,1.3706,1.3688,1.3679,1.3669,1.3657,1.3641,1.3624,1.3605,1.36,1.3591,1.3581,1.358,1.3574,1.3569,1.3571,1.3569,1.3568,1.3573,1.3573,1.3573,1.3573,0,0,1.3778,1.3748,1.3747,1.3737,1.3714,1.3704,1.3692,1.3675,1.3667,1.3652,1.3641,1.3621,1.3615,1.3604,1.3592,1.3586,1.3584,1.358,1.3579,1.3581,1.3571,1.3576,1.3576,1.3577,1.3577,1.3577,1.3573,0,1.3777,1.3757,1.3742,1.3726,1.3714,1.3699,1.3689,1.3674,1.3662,1.3649,1.3635,1.3621,1.3615,1.3608,1.3601,1.3586,1.3581,1.3586,1.3567,1.3566,1.3572,1.3575,1.358,1.3577,1.3572,1.3572,1.3572,0,1.3774,1.3759,1.3743,1.3721,1.3716,1.3707,1.3689,1.3678,1.366,1.3651,1.3639,1.3627,1.3613,1.361,1.359,1.3593,1.3584,1.3576,1.3575,1.3573,1.3569,1.3572,1.3576,1.3575,1.3571,1.3571,1.3571,0,1.3784,1.3761,1.3747,1.3739,1.3714,1.3708,1.3697,1.3679,1.367,1.3654,1.3647,1.363,1.3621,1.3607,1.3591,1.359,1.3573,1.3568,1.3565,1.3565,1.3562,1.3562,1.3564,1.3557,1.3557,1.3557,1.3557,0,1.3785,1.3775,1.3752,1.3744,1.3732,1.3715,1.3704,1.3692,1.3676,1.3665,1.365,1.364,1.3619,1.3606,1.3593,1.3579,1.3574,1.3567,1.3564,1.3568,1.3569,1.3562,1.3562,1.3556,1.3557,1.3557,1.3557,0,1.3795,1.3779,1.3764,1.3741,1.3735,1.3728,1.3708,1.3699,1.3686,1.3672,1.3668,1.3647,1.3631,1.3613,1.3591,1.3582,1.3568,1.3563,1.3574,1.3572,1.357,1.3571,1.3567,1.3566,1.356,1.356,1.356,0,1.3797,1.3789,1.3766,1.3757,1.3747,1.3734,1.3724,1.3706,1.3696,1.3675,1.3669,1.3651,1.3637,1.3611,1.3594,1.3576,1.3571,1.3571,1.3568,1.3573,1.3571,1.3571,1.357,1.3572,1.3572,1.3572,1.3572,0,1.3801,1.3793,1.378,1.3763,1.3752,1.3738,1.3723,1.3717,1.3696,1.3685,1.3669,1.3657,1.3635,1.3617,1.3598,1.3586,1.3575,1.3573,1.3571,1.3576,1.3583,1.3579,1.3576,1.3573,1.3573,1.3573,1.3573,1.3573,1.3807,1.3799,1.3781,1.3767,1.3754,1.374,1.3731,1.3716,1.3703,1.3683,1.3673,1.3657,1.3638,1.3611,1.3599,1.3585,1.3582,1.358,1.3579,1.3579,1.358,1.3585,1.3581,1.3581,1.3581,1.3581,1.3581,0,1.381,1.3798,1.3785,1.3765,1.3753,1.3744,1.3727,1.3718,1.3704,1.3687,1.3673,1.3654,1.3637,1.3618,1.36,1.3592,1.3587,1.3588,1.3588,1.3586,1.3584,1.3587,1.3593,1.3593,1.3593,1.3593,1.3593,1.3593,1.3811,1.3797,1.3788,1.3767,1.3755,1.3739,1.373,1.3717,1.3704,1.3683,1.3669,1.3657,1.3639,1.362,1.3604,1.3598,1.3592,1.3595,1.3588,1.3587,1.3586,1.3585,1.3588,1.3593,1.3593,1.3591,1.3591,1.3591]}]]